Regional Weather Roundup
Issued by NWS

Home | Current Version | Previous Version | Graphics & Text | Print | Product List | Glossary On
Versions: 1 2 3 4 5 6 7 8 9 10 11 12 13 14 15 16 17 18 19 20 21 22 23 24 25 26 27 28 29 30 31 32 33 34 35 36 37 38 39 40 41 42 43 44 45 46 47 48 49 50
000
ASUS44 KMEG 180410
RWRTN
TENNESSEE HOURLY STATE WEATHER ROUNDUP
NATIONAL WEATHER SERVICE MEMPHIS TN
1100 PM CDT THU APR 17 2014

TNZ002-004-019-021-049-052-054-088>092-180500-
WEST TENNESSEE

CITY           SKY/WX    TMP DP  RH WIND       PRES   REMARKS
MEMPHIS INTL   MOCLDY    62  42  47 CALM      30.21F
NWS MEMPHIS      N/A     55 N/A N/A MISG        N/A
JACKSON        CLOUDY    52  43  71 CALM      30.24F
DYERSBURG      CLOUDY    55  37  50 E6        30.25F
UNION CITY     CLEAR     52  46  82 CALM      30.24S
PARIS          MOCLDY    50  40  68 SE5       30.25S
LEXINGTON      MOCLDY    54  43  66 CALM      30.24F
SAVANNAH       CLOUDY    57  46  66 CALM      30.24F
$$

TNZ008-025-027-028-033-062-065-066-180500-
NORTH MIDDLE TENNESSEE

CITY           SKY/WX    TMP DP  RH WIND       PRES   REMARKS
NASHVILLE      CLOUDY    55  41  59 S3        30.27S
DICKSON        MOCLDY    55  36  47 CALM      30.26S
PORTLAND       MOCLDY    52  34  50 CALM      30.26F
CLARKSVILLE    MOCLDY    54  36  50 SE3       30.26S
SMYRNA         MOCLDY    51  42  71 CALM      30.28F
MURFREESBORO   MOCLDY    54  41  61 CALM      30.27S
COOKEVILLE     CLEAR     46  39  76 CALM      30.28S
LIVINGSTON     MOCLDY    56  35  45 S6        30.30S
GALLATIN       MOCLDY    52  41  66 CALM      30.28S
CROSSVILLE     MOCLDY    52  36  54 CALM      30.32S
$$

TNZ061-075-076-078-094-096-097-180500-
SOUTH MIDDLE TENNESSEE

CITY           SKY/WX    TMP DP  RH WIND       PRES   REMARKS
LEWISBURG      MOCLDY    49  44  83 CALM      30.26F
FAYETTEVILLE   CLOUDY    55  42  61 E7        30.26F
TULLAHOMA      CLEAR     57  39  51 E3        30.28F
WINCHESTER     CLEAR     55  41  58 SE9       30.27F
MCMINNVILLE    CLEAR     57  39  51 CALM      30.28F
COLUMBIA       MOCLDY    52  48  87 CALM      30.25S
SHELBYVILLE    MOCLDY    52  45  76 SE5       30.28F
$$

TNZ017-018-042-046-047-180500-
NORTHEAST TENNESSEE

CITY           SKY/WX    TMP DP  RH WIND       PRES   REMARKS
TRI CITIES     PTCLDY    53  19  26 SE7       30.36F
ELIZABETHTON   CLEAR     50  21  32 CALM      30.38S
$$

TNZ012-013-036-069-073-074-180500-
CENTRAL EAST TENNESSEE

CITY           SKY/WX    TMP DP  RH WIND       PRES   REMARKS
KNOXVILLE      CLOUDY    54  37  52 SE3       30.31S
OAK RIDGE      MOCLDY    53  38  56 CALM      30.32S
$$

TNZ083-085-099-180500-
SOUTHEAST TENNESSEE

CITY           SKY/WX    TMP DP  RH WIND       PRES   REMARKS
CHATTANOOGA    CLOUDY    58  40  51 CALM      30.31F
$$

SKY/WX REPORTED AS FAIR MEANS FEW OR NO CLOUDS BELOW
12 THOUSAND FEET.




USA.gov is the U.S. government's official web portal to all federal, state and local government web resources and services.